Regional Weather Roundup
Issued by NWS

Home | Current Version | Previous Version | Graphics & Text | Print | Product List | Glossary On
Versions: 1 2 3 4 5 6 7 8 9 10 11 12 13 14 15 16 17 18 19 20 21 22 23 24 25 26 27 28 29 30 31 32 33 34 35 36 37 38 39 40 41 42 43 44 45 46 47 48 49 50
000
ASUS43 KIND 181309
RWRIN

WEATHER ROUNDUP FOR INDIANA
NATIONAL WEATHER SERVICE INDIANAPOLIS IN
900 AM EDT FRI AUG 18 2017

NOTE: "FAIR" INDICATES FEW OR NO CLOUDS BELOW 12,000 FEET WITH NO
SIGNIFICANT WEATHER AND/OR OBSTRUCTIONS TO VISIBILITY.

* - STATION DOES NOT REPORT WEATHER SUCH AS PRECIPITATION OR FOG.

+ - STATION NOT QUALITY CONTROLLED BY THE NATIONAL WEATHER SERVICE.
    USE DATA WITH CAUTION...ESPECIALLY DEWPOINT AND RELATIVE
    HUMIDITY OBSERVATIONS.

INZ001>003-010>013-019-020-181400-
NORTHWEST INDIANA

CITY           SKY/WX    TMP DP  RH WIND       PRES   REMARKS
GARY /AIRPORT/ PTSUNNY   72  63  73 W14       29.85R
KNOX *+        MOSUNNY   68  64  88 W9        29.85R
LA PORTE +     MOSUNNY   67  64  88 W6        29.85R
MICHIGAN CITY+ CLOUDY    70  61  73 W7        29.84R
MONTICELLO +   SUNNY     68  65  89 W6        29.87S
RENSSELAER +   SUNNY     66  61  82 SW7       29.88R
VALPARAISO     MOSUNNY   70  65  84 W7        29.85R

$$

LMZ046-743>745-181400-
SOUTHERN LAKE MICHIGAN

STATION/POSITION TIME  TEMP    WIND        PRES    WAVE
                       AIR SEA DIR/SP/G            HT
                 (UTC) (F)     (DEG/KT/KT) (MB)    (FT)
BURNS HARBOR     1240   70     280/ 13/ 17 1010.8R
MICHIGAN CITY    1240   69     250/ 15/ 17   N/A
5NW MICH CITY    1300   71 74  290/ 14/ 17   N/A     4

$$

INZ004-005-014>016-021>024-181400-
NORTH CENTRAL INDIANA

CITY           SKY/WX    TMP DP  RH WIND       PRES   REMARKS
ELKHART        PTSUNNY   70  63  78 SW9       29.83R
GOSHEN         SUNNY     69  63  81 W10       29.83R
LOGANSPORT +   SUNNY     66  64  94 W8        29.88R
PERU/GRISSOM   SUNNY     69  67  92 W12       29.86R
ROCHESTER +    MOSUNNY   70  64  83 W9        29.86R
SOUTH BEND     PTSUNNY   68  66  93 W7        29.83R
WARSAW +       MOSUNNY   68  64  88 W9        29.85R

$$

INZ006>009-017-018-025>027-181400-
NORTHEAST INDIANA

CITY           SKY/WX    TMP DP  RH WIND       PRES   REMARKS
AUBURN +       MOSUNNY   70  63  78 SW7       29.84R
FORT WAYNE     MOSUNNY   70  64  81 W13       29.85R
HUNTINGTON +   SUNNY     69  66  90 W8        29.85R
KENDALLVILLE + PTSUNNY   68  66  91 W12G17    29.84R

$$

INZ028-029-035-036-043>045-051>053-181400-
WEST CENTRAL INDIANA

CITY           SKY/WX    TMP DP  RH WIND       PRES   REMARKS
GREENCASTLE +  SUNNY     68  63  83 W3        29.91S
LAFAYETTE      SUNNY     67  65  93 W6        29.88R
TERRE HAUTE    SUNNY     70  65  84 W3        29.91R

$$

INZ030>032-037>040-046>048-054>057-064-065-181400-
CENTRAL INDIANA

CITY           SKY/WX    TMP DP  RH WIND       PRES   REMARKS
ANDERSON       SUNNY     70  64  83 MISG      29.90
CP ATTERBURY + SUNNY     72  66  83 W3        29.91S
FRANKFORT +    MOSUNNY   70  67  89 W7        29.90S
GREENWOOD *+   SUNNY     70  64  82 W6        29.91R
INDIANAPOLIS   MOSUNNY   71  65  81 W7        29.89R
-EAGLE CREEK   SUNNY     71  64  78 W9        29.89R
KOKOMO +       MOSUNNY   70  65  84 W12       29.88R
MARION +       SUNNY     68  64  88 W6        29.89R
MT COMFORT *+  SUNNY     70  64  83 W8        29.90R
SHELBYVILLE    SUNNY     72  66  81 W7        29.90R
ZIONSVILLE +   SUNNY     68  65  89 W7        29.90S

$$

INZ033-034-041-042-049-050-058-059-181400-
EAST CENTRAL INDIANA

CITY           SKY/WX    TMP DP  RH WIND       PRES   REMARKS
MUNCIE         SUNNY     72  65  78 W8        29.88R
RICHMOND +     MOSUNNY   68  68 100 W8        29.91R

$$

INZ060-061-067>069-081>083-085>088-181400-
SOUTHWEST INDIANA

CITY           SKY/WX    TMP DP  RH WIND       PRES   REMARKS
EVANSVILLE     SUNNY     73  66  78 W8        29.94S
HUNTINGBURG +  SUNNY     72  68  87 MISG      29.94R
WASHINGTON +   SUNNY     70  65  83 MISG      29.92R

$$

INZ062-063-066-070>080-084-089>092-181400-
SOUTH CENTRAL AND SOUTHEAST INDIANA

CITY           SKY/WX    TMP DP  RH WIND       PRES   REMARKS
BEDFORD +      SUNNY     72  64  78 W5        29.92R
BLOOMINGTON    SUNNY     70  65  84 W5        29.92R
MADISON *+     SUNNY     72  70  94 W6        29.93S
NORTH VERNON + SUNNY     70  68  94 W6        29.92R
SEYMOUR +      SUNNY     73  68  83 W6        29.91S

$$




USA.gov is the U.S. government's official web portal to all federal, state and local government web resources and services.